sat.trackr.live / text

‹ back to catalog

GLOBAL-9

NORAD 47971 · 2021-023G

PAYLOAD ACTIVE UNKNOWN

§ Identity

Operator
Country
US
Launch date
2021-03-22
Launch site
RLLB
Launch vehicle
Mass (kg)
RCS (m²)

External: N2YO · Heavens-Above · Gunter

§ Orbital elements

Epoch: 2026-05-25T01:24:32.595840Z

Period
93.17 min
Inclination
44.9831°
Eccentricity
0.0003725
Mean motion
15.45542168 rev/d
Perigee alt
427.2 km
Apogee alt
432.3 km
Semi-major
6,807.9 km
B*
3.8816e-4
RAAN
20.4275°
Arg perigee
198.4194°
Mean anomaly
161.6561°
Rev number
29,136

§ Raw data

GLOBAL-91 47971U 21023G   26145.05871060  .00018750  00000+0  38816-3 0  99902 47971  44.9831  20.4275 0003725 198.4194 161.6561 15.45542168291360

JSON: /api/v1/satellites/47971 · /tle

For live sub-satellite position, see the globe view (requires WebGL).

§ Visibility from observer

Set your observer location to see the next 7 days of passes ≥ 10°. The values pass through the URL so the page stays shareable.

No JS? Fill the form by hand. The geolocation button needs JavaScript.

§ Radio — SatNOGS DB

ModeDescriptionDownlinkUplink
FM Telemetry 400.876 MHz
BPSK UHF Unknown 401.500 MHz

2 transmitters · refreshed weekly from db.satnogs.org